SCP
0 0 0 0 0 -0 0 0 0 0 0 0 0 0 0 0 0 0 0 0 0 0 0 0 0 0 0 0 0 0 0 0 0 0 -0 0 -0 -0 -0 -0 0 0 0 -0
0 0 0 0 0 0 0 0 0 0 0 0 0 0 0 0 0 0 0 0 0 0 0 0 0 0 0 0 0 0 0 0 0 0 0 0 0 0 0 0 -0 -0 -0 0
0 0 0 0 0 0 0 0 0 0 0 0 0 0 0 0 0 0 0 0 0 0 0 0 0 0 0 0 0 0 0 0 0 0 0 0 -0 0 0 0 0 -0 0 -0
0 0 0 0 0 0 0 0 0 0 0 0 0 0 0 0 0 0 0 0 0 0 0 0 0 0 0 0 0 0 0 0 0 0 -0 -0 -0 -0 0 -0 -0 -0 -0 -0
0 0 0 0 0 0 0 0 0 0 0 0 0 0 0 0 0 0 0 0 0 0 0 0 -0 -0 0 0 0 0 0 0 0 0 0 0 -0 0 0 0 -0 -0 -0 -0
0 0 0 0 0 0 0 0 0 0 0 0 0 0 0 0 0 0 0 0 0 0 0 0 0 0 0 0 0 0 0 0 0 0 0 0 0 -0 -0 -0 -0 0 -0 -0
0 0 0 0 0 0 0 0 0 0 0 0 0 0 0 0 0 0 0 0 0 0 0 0 0 0 0 0 0 0 0 0 0 0 -0 0 0 -0 0 -0 0 0 0 -0
0 0 0 0 0 0 0 0 0 0 0 0 0 0 0 0 0 0 0 0 0 0 0 0 0 0 0 0 0 0 0 0 0 0 0 0 0 -0 -0 0 -0 -0 -0 -0
0 0 0 0 0 0 0 0 0 0 0 0 0 0 0 0 0 0 0 0 0 0 0 0 -0 0 0 0 0 0 0 0 0 0 0 0 -0 -0 -0 0 0 0 0 -0
0 0 0 0 0 0 0 0 0 0 0 0 0 0 0 0 0 0 0 0 0 0 0 0 0 0 0 0 0 0 0 0 0 -0 0 -0 0 -0 -0 0 0 -0 -0 -0
0 0 0 0 0 0 0 0 0 0 0 0 0 0 0 0 0 0 0 0 0 0 0 0 -0 0 0 0 0 0 0 -0 -0 -0 0 0 0 0 0 0 -0 -0 -0 0
0 0 0 0 0 0 0 0 0 0 0 0 0 0 0 0 0 0 0 0 0 0 0 0 0 0 0 0 0 0 0 0 0 -0 0 0 0 0 -0 -0 -0 -0 -0 0
0 0 0 0 0 0 0 0 0 0 0 0 0 0 0 0 0 0 0 0 0 0 0 0 0 0 0 0 0 0 0 0 0 0 0 0 -0 -0 -0 -0 -0 0 0 0
0 0 0 0 0 0 0 0 0 0 0 0 0 0 -0 -0 0 0 0 0 0 0 0 0 0 0 0 0 0 0 0 0 0 0 0 -0 -0 -0 -0 -0 0 0 0 0
0 0 0 0 0 0 0 0 0 0 0 0 0 0 0 0 0 0 0 0 0 0 0 0 0 0 0 0 0 0 0 0 0 -0 -0 -0 -0 -0 -0 -0 -0 0 0 0
0 0 0 0 0 0 0 0 0 0 0 0 0 0 0 -0 0 0 0 0 0 0 0 0 0 0 0 0 0 0 0 0 -0 0 -0 -0 -0 -0 -0 0 0 0 0 0
0 0 0 0 0 0 0 0 0 0 0 0 0 0 0 0 0 0 0 0 0 0 0 0 0 0 0 0 0 0 0 0 0 -0 0 0 0 0 0 0 0 0 0 0
0 0 0 0 0 0 0 0 0 0 0 0 0 0 0 0 0 0 0 0 0 0 0 0 -0 0 0 0 0 0 0 0 0 0 0 0 0 0 0 0 0 0 0 0
0 0 0 0 0 0 0 0 0 0 0 0 0 0 0 0 0 0 0 0 0 0 0 0 0 0 -0 0 0 0 0 0 0 -0 0 0 0 0 0 0 0 0 0 0
0 0 0 0 0 0 0 0 0 0 0 0 0 0 0 0 0 0 0 0 0 0 0 0 -0 0 0 0 0 0 0 0 0 -0 0 0 0 0 0 0 0 0 0 0
0 0 0 0 0 0 0 0 0 0 0 0 0 0 0 0 0 0 0 0 0 0 0 0 -0 -0 0 0 0 0 0 0 -0 -0 -0 0 0 0 0 0 0 0 0 0
0 0 0 0 0 0 0 0 0 0 0 0 0 0 0 0 0 0 0 0 0 0 0 0 -0 0 0 0 0 0 0 0 -0 -0 -0 0 0 0 0 0 0 0 0 0
0 0 0 0 0 0 0 0 0 0 0 0 0 0 0 -0 -0 0 0 0 0 0 0 0 0 0 0 0 -0 -0 0 -0 -0 -0 0 0 0 0 0 0 0 0 0 0
0 0 0 0 0 0 0 0 0 0 0 0 0 0 0 -0 0 0 0 0 0 0 0 0 0 -0 -0 0 -0 -0 -0 -0 -0 0 0 0 0 0 0 0 0 0 0 0
0 0 0 0 0 0 0 0 0 0 0 0 0 0 0 -0 0 0 0 0 0 0 0 0 0 -0 -0 -0 -0 -0 -0 -0 -0 0 0 0 0 0 0 0 0 0 0 0
0 0 0 0 0 0 0 0 0 0 0 0 -0 0 0 0 0 0 0 0 0 0 0 0 0 -0 -0 -0 0 -0 -0 -0 -0 0 0 0 0 0 0 0 0 0 0 0
0 0 0 0 0 0 0 0 0 -0 -0 0 0 0 0 0 0 0 0 0 0 0 0 0 0 0 -0 -0 -0 -0 -0 -0 -0 0 0 0 0 0 0 0 0 0 0 0
Wind_Speed_500mb
67 68 72 74 82 86 75 25 8 23 38 15 5 7 21 44 22 31 13 10 13 18 18 11 13 10 9 14 8 16 5 8 13 21 44 27 33 33 26 12 10 3 2 14
63 65 65 68 73 76 76 44 13 19 30 8 8 17 23 38 26 19 14 14 18 30 4 8 14 23 18 22 5 4 6 7 10 10 6 3 6 5 21 18 21 26 15 15
61 59 60 62 64 61 53 21 8 20 29 47 19 21 29 28 25 24 31 22 23 19 17 14 15 33 8 13 19 41 32 4 14 16 34 28 39 35 30 12 8 9 13 32
63 54 56 60 61 61 36 12 10 19 9 21 30 31 26 27 28 21 35 11 25 24 18 26 23 20 34 32 45 7 11 10 15 35 45 42 45 45 40 34 26 18 28 34
60 53 50 57 62 64 24 17 15 18 44 35 29 18 19 25 31 29 17 20 25 16 17 14 47 43 32 20 13 14 10 7 8 32 38 28 35 35 34 38 33 28 34 42
54 49 50 55 60 55 17 21 22 19 20 21 18 13 27 38 35 14 48 23 18 27 23 54 63 64 64 36 10 6 7 4 5 13 24 39 4 24 21 27 20 22 21 33
55 49 49 52 52 49 36 26 25 20 11 15 20 40 35 33 35 30 27 45 19 31 69 75 59 41 23 10 14 19 7 3 5 14 20 6 4 34 23 31 19 20 23 33
50 50 48 49 48 46 40 23 15 18 10 22 38 33 33 40 49 31 24 43 35 57 46 14 13 5 2 11 13 10 7 5 6 6 9 12 8 28 24 19 22 20 21 30
48 47 45 49 48 44 38 28 12 19 20 10 42 38 34 18 16 12 33 40 47 44 7 8 9 6 13 8 6 12 13 10 6 6 8 5 7 41 55 34 11 27 34 38
49 50 45 47 48 39 35 25 15 15 23 40 31 19 19 22 21 11 29 29 21 35 9 7 6 6 17 9 9 10 10 7 7 10 8 5 18 43 56 6 12 58 64 59
45 42 42 42 40 35 35 28 22 24 21 60 33 11 43 49 36 6 32 19 10 7 10 7 7 6 8 8 1 7 6 8 7 8 7 7 51 18 12 22 75 48 29 12
42 37 38 40 35 32 33 33 4 19 40 62 79 73 58 58 55 45 15 21 13 5 1 3 5 6 6 9 6 0 3 3 4 5 7 20 41 24 42 58 48 33 28 25
35 34 34 33 29 28 32 37 30 18 35 61 41 44 14 18 19 30 15 9 4 7 13 6 3 8 5 5 5 4 2 5 5 8 1 19 30 46 55 57 27 21 23 30
32 34 30 28 27 26 30 34 24 19 22 13 22 23 60 48 36 35 36 33 23 14 8 10 7 5 10 4 6 4 1 9 5 9 11 30 10 46 58 44 20 17 22 31
31 29 32 30 22 23 30 33 34 17 20 12 40 83 3 5 22 37 43 44 44 22 8 6 7 8 6 5 5 3 3 5 4 4 15 13 31 50 39 31 17 18 30 36
27 24 21 17 21 21 19 4 1 13 25 14 9 24 36 11 23 32 50 46 44 30 11 9 11 9 10 3 4 6 19 21 28 8 23 27 32 25 19 18 14 20 34 41
25 20 13 14 22 26 16 10 5 16 12 7 15 12 17 17 23 39 42 36 27 22 8 12 10 11 11 0 4 9 21 20 12 13 16 13 13 16 9 15 17 28 38 42
15 13 14 18 25 32 30 11 18 25 9 11 7 10 16 14 24 21 21 21 23 18 11 10 7 11 5 5 9 14 16 10 10 10 5 3 5 11 13 22 23 44 47 48
14 19 22 27 23 8 13 19 15 31 18 8 10 6 7 9 14 9 13 16 7 16 8 7 9 5 5 7 5 8 11 4 4 6 6 6 20 21 26 34 33 44 45 57
20 26 10 9 6 10 20 8 6 16 17 14 11 17 14 28 11 2 5 1 4 5 9 7 4 3 9 3 8 4 6 1 9 8 8 17 31 31 30 39 40 46 54 59
17 6 6 16 7 9 8 8 12 14 9 16 18 29 18 19 10 6 12 3 4 4 4 3 2 2 6 8 2 2 4 2 3 10 15 20 30 39 39 46 50 55 61 66
17 19 28 22 10 11 10 7 9 13 9 22 12 22 35 15 10 2 1 3 2 8 3 1 3 6 20 12 7 8 3 17 14 18 26 28 39 42 42 58 57 56 64 68
20 7 6 9 10 9 9 8 8 8 9 11 19 7 5 9 18 9 5 5 8 3 1 3 4 28 19 16 18 10 18 18 22 24 32 34 45 47 44 52 56 64 61 66
7 7 8 8 9 11 12 13 17 33 27 24 20 22 10 16 10 6 7 8 4 4 3 1 8 33 25 22 21 15 27 24 28 33 38 44 52 48 52 55 51 67 66 69
8 10 9 14 30 39 45 25 28 29 17 4 19 24 15 5 3 6 3 5 7 4 2 5 30 33 20 22 25 24 31 30 35 37 40 48 46 46 53 58 57 57 62 63
10 15 12 31 26 22 23 30 28 25 29 14 33 7 2 9 6 6 10 4 2 5 6 29 38 30 23 22 30 32 34 35 41 40 40 45 50 49 51 58 56 55 65 61
12 19 34 49 44 41 42 33 29 30 13 6 12 6 4 10 6 6 7 8 6 24 24 24 33 27 31 34 35 32 35 43 42 41 44 45 60 53 52 48 51 45 41 54
Wind_Direction_500mb
351 355 357 359 354 355 4 7 319 341 5 5 18 339 326 313 349 321 317 347 324 310 312 322 308 276 308 154 190 290 314 274 277 263 272 275 265 274 254 258 246 213 221 256
350 354 358 1 1 353 350 340 286 1 354 27 345 323 325 310 314 342 357 327 317 311 359 314 276 297 283 348 84 193 210 231 286 287 20 194 110 267 290 298 249 256 266 265
346 351 357 1 3 356 349 340 320 351 339 4 349 323 307 306 346 341 341 310 316 323 313 287 275 297 311 251 255 271 253 243 226 268 272 292 292 286 279 223 269 297 268 283
339 346 351 357 359 2 355 3 351 338 304 329 303 297 290 334 334 336 333 326 305 313 324 309 288 306 298 294 284 137 180 251 225 256 267 270 267 273 269 259 248 254 284 286
332 340 344 347 354 357 3 355 343 316 297 292 299 314 352 316 338 337 312 305 330 336 318 320 316 313 302 287 259 160 167 259 290 285 285 271 276 279 278 264 250 248 263 274
323 333 335 340 344 349 350 314 329 313 285 303 312 328 326 320 334 316 307 350 349 329 325 310 292 283 278 258 187 143 160 234 272 276 312 307 169 353 351 343 290 307 267 267
315 319 323 329 335 339 334 330 321 301 286 307 305 314 324 324 320 301 336 4 351 317 320 311 297 282 273 204 142 161 163 267 281 287 312 357 105 27 354 335 45 22 346 334
308 310 316 315 328 326 324 330 316 305 287 287 294 335 313 325 315 329 351 341 348 342 321 309 328 317 357 89 97 154 174 236 277 280 307 281 10 354 337 336 304 33 338 326
299 304 305 310 313 316 315 317 268 279 301 261 323 312 327 322 322 320 324 332 348 359 288 334 349 326 336 358 17 121 316 294 229 321 278 316 11 334 320 313 250 4 338 313
293 297 303 301 305 310 303 316 259 270 279 278 304 306 302 299 315 287 304 350 360 11 342 332 8 311 330 352 3 329 321 335 267 288 276 98 3 340 322 355 321 312 300 287
294 292 299 302 305 304 297 299 253 247 268 289 282 309 302 297 291 248 315 346 6 41 3 331 342 326 311 326 308 317 327 329 347 329 300 338 2 346 3 297 301 313 313 11
296 289 293 295 292 297 292 294 242 266 255 266 298 301 296 272 267 259 261 282 300 156 8 285 296 286 276 331 299 18 293 110 280 257 281 337 343 327 321 320 318 339 0 57
295 297 292 288 278 283 282 289 301 292 286 296 273 281 325 299 276 244 222 235 199 205 227 205 254 273 286 287 289 288 336 77 251 292 226 333 320 333 338 341 357 7 36 77
291 291 294 287 280 283 282 286 295 260 281 283 284 300 293 270 251 224 224 242 245 242 234 203 259 238 233 248 259 227 40 314 290 260 299 329 300 333 339 346 15 45 74 86
292 293 292 284 267 277 289 300 294 226 257 288 300 309 340 310 221 212 225 238 231 238 192 212 270 241 223 220 214 191 277 261 265 290 338 292 292 319 349 348 40 71 88 94
304 299 285 267 269 284 307 332 243 222 260 276 300 294 293 314 222 218 224 237 220 222 197 226 242 229 178 253 267 186 329 300 264 264 292 296 307 325 345 41 69 98 104 112
308 303 284 262 267 278 253 245 217 198 229 291 292 277 283 284 223 224 223 228 211 220 221 226 234 201 194 153 263 308 316 317 334 318 309 277 313 337 4 99 97 109 114 121
316 319 291 279 283 284 284 281 259 236 273 242 266 279 278 257 226 229 221 180 196 211 224 236 200 138 194 239 222 291 318 302 359 9 22 281 351 126 123 119 123 117 111 120
308 320 308 297 273 253 252 272 268 212 212 256 227 258 283 305 274 300 181 212 192 189 218 229 182 168 228 205 233 294 311 342 15 37 79 110 101 125 126 124 125 119 116 118
313 322 310 301 282 298 282 272 211 201 212 233 253 255 260 320 280 303 33 208 236 210 223 184 193 99 121 146 338 273 291 4 129 100 92 124 113 127 139 122 115 125 124 122
305 302 262 298 277 259 244 243 200 183 229 219 241 225 231 264 238 284 180 252 299 285 243 215 182 139 117 176 301 170 215 265 132 153 144 139 151 132 148 129 122 118 124 129
287 285 293 282 247 228 244 231 211 201 241 186 222 215 202 250 280 263 347 244 263 251 242 218 193 120 142 155 169 180 27 124 116 122 134 125 148 139 145 134 126 123 121 124
289 273 267 238 229 237 229 225 220 225 213 280 219 170 182 284 234 217 182 234 232 156 227 209 90 136 136 154 157 169 138 133 130 129 136 124 145 132 135 141 137 122 126 125
255 242 247 236 212 228 210 238 281 321 290 300 304 290 230 229 215 203 234 215 241 225 243 169 143 143 142 163 170 165 149 147 138 133 129 127 136 124 134 128 140 127 126 126
238 239 240 234 241 289 302 302 294 320 302 341 280 265 191 290 295 248 263 230 226 148 180 121 133 142 151 163 169 163 152 150 145 141 140 134 130 135 132 127 128 142 133 138
228 233 258 266 274 269 303 324 329 347 327 286 269 265 271 223 235 225 225 203 76 194 108 130 147 153 153 155 165 162 158 152 152 142 139 150 136 136 141 143 130 131 134 132
231 241 240 255 274 275 274 279 295 328 357 357 323 254 246 305 265 238 40 40 48 106 96 135 152 154 156 142 144 157 158 156 152 150 149 144 135 131 134 131 126 125 130 136
Wind_Speed_850mb
67 68 72 74 82 86 75 25 8 23 38 15 5 7 21 44 22 31 13 10 13 18 18 11 13 10 9 14 8 16 5 8 13 21 44 27 33 33 26 12 10 3 2 14
63 65 65 68 73 76 76 44 13 19 30 8 8 17 23 38 26 19 14 14 18 30 4 8 14 23 18 22 5 4 6 7 10 10 6 3 6 5 21 18 21 26 15 15
61 59 60 62 64 61 53 21 8 20 29 47 19 21 29 28 25 24 31 22 23 19 17 14 15 33 8 13 19 41 32 4 14 16 34 28 39 35 30 12 8 9 13 32
63 54 56 60 61 61 36 12 10 19 9 21 30 31 26 27 28 21 35 11 25 24 18 26 23 20 34 32 45 7 11 10 15 35 45 42 45 45 40 34 26 18 28 34
60 53 50 57 62 64 24 17 15 18 44 35 29 18 19 25 31 29 17 20 25 16 17 14 47 43 32 20 13 14 10 7 8 32 38 28 35 35 34 38 33 28 34 42
54 49 50 55 60 55 17 21 22 19 20 21 18 13 27 38 35 14 48 23 18 27 23 54 63 64 64 36 10 6 7 4 5 13 24 39 4 24 21 27 20 22 21 33
55 49 49 52 52 49 36 26 25 20 11 15 20 40 35 33 35 30 27 45 19 31 69 75 59 41 23 10 14 19 7 3 5 14 20 6 4 34 23 31 19 20 23 33
50 50 48 49 48 46 40 23 15 18 10 22 38 33 33 40 49 31 24 43 35 57 46 14 13 5 2 11 13 10 7 5 6 6 9 12 8 28 24 19 22 20 21 30
48 47 45 49 48 44 38 28 12 19 20 10 42 38 34 18 16 12 33 40 47 44 7 8 9 6 13 8 6 12 13 10 6 6 8 5 7 41 55 34 11 27 34 38
49 50 45 47 48 39 35 25 15 15 23 40 31 19 19 22 21 11 29 29 21 35 9 7 6 6 17 9 9 10 10 7 7 10 8 5 18 43 56 6 12 58 64 59
45 42 42 42 40 35 35 28 22 24 21 60 33 11 43 49 36 6 32 19 10 7 10 7 7 6 8 8 1 7 6 8 7 8 7 7 51 18 12 22 75 48 29 12
42 37 38 40 35 32 33 33 4 19 40 62 79 73 58 58 55 45 15 21 13 5 1 3 5 6 6 9 6 0 3 3 4 5 7 20 41 24 42 58 48 33 28 25
35 34 34 33 29 28 32 37 30 18 35 61 41 44 14 18 19 30 15 9 4 7 13 6 3 8 5 5 5 4 2 5 5 8 1 19 30 46 55 57 27 21 23 30
32 34 30 28 27 26 30 34 24 19 22 13 22 23 60 48 36 35 36 33 23 14 8 10 7 5 10 4 6 4 1 9 5 9 11 30 10 46 58 44 20 17 22 31
31 29 32 30 22 23 30 33 34 17 20 12 40 83 3 5 22 37 43 44 44 22 8 6 7 8 6 5 5 3 3 5 4 4 15 13 31 50 39 31 17 18 30 36
27 24 21 17 21 21 19 4 1 13 25 14 9 24 36 11 23 32 50 46 44 30 11 9 11 9 10 3 4 6 19 21 28 8 23 27 32 25 19 18 14 20 34 41
25 20 13 14 22 26 16 10 5 16 12 7 15 12 17 17 23 39 42 36 27 22 8 12 10 11 11 0 4 9 21 20 12 13 16 13 13 16 9 15 17 28 38 42
15 13 14 18 25 32 30 11 18 25 9 11 7 10 16 14 24 21 21 21 23 18 11 10 7 11 5 5 9 14 16 10 10 10 5 3 5 11 13 22 23 44 47 48
14 19 22 27 23 8 13 19 15 31 18 8 10 6 7 9 14 9 13 16 7 16 8 7 9 5 5 7 5 8 11 4 4 6 6 6 20 21 26 34 33 44 45 57
20 26 10 9 6 10 20 8 6 16 17 14 11 17 14 28 11 2 5 1 4 5 9 7 4 3 9 3 8 4 6 1 9 8 8 17 31 31 30 39 40 46 54 59
17 6 6 16 7 9 8 8 12 14 9 16 18 29 18 19 10 6 12 3 4 4 4 3 2 2 6 8 2 2 4 2 3 10 15 20 30 39 39 46 50 55 61 66
17 19 28 22 10 11 10 7 9 13 9 22 12 22 35 15 10 2 1 3 2 8 3 1 3 6 20 12 7 8 3 17 14 18 26 28 39 42 42 58 57 56 64 68
20 7 6 9 10 9 9 8 8 8 9 11 19 7 5 9 18 9 5 5 8 3 1 3 4 28 19 16 18 10 18 18 22 24 32 34 45 47 44 52 56 64 61 66
7 7 8 8 9 11 12 13 17 33 27 24 20 22 10 16 10 6 7 8 4 4 3 1 8 33 25 22 21 15 27 24 28 33 38 44 52 48 52 55 51 67 66 69
8 10 9 14 30 39 45 25 28 29 17 4 19 24 15 5 3 6 3 5 7 4 2 5 30 33 20 22 25 24 31 30 35 37 40 48 46 46 53 58 57 57 62 63
10 15 12 31 26 22 23 30 28 25 29 14 33 7 2 9 6 6 10 4 2 5 6 29 38 30 23 22 30 32 34 35 41 40 40 45 50 49 51 58 56 55 65 61
12 19 34 49 44 41 42 33 29 30 13 6 12 6 4 10 6 6 7 8 6 24 24 24 33 27 31 34 35 32 35 43 42 41 44 45 60 53 52 48 51 45 41 54
Wind_Direction_850mb
351 355 357 359 354 355 4 7 319 341 5 5 18 339 326 313 349 321 317 347 324 310 312 322 308 276 308 154 190 290 314 274 277 263 272 275 265 274 254 258 246 213 221 256
350 354 358 1 1 353 350 340 286 1 354 27 345 323 325 310 314 342 357 327 317 311 359 314 276 297 283 348 84 193 210 231 286 287 20 194 110 267 290 298 249 256 266 265
346 351 357 1 3 356 349 340 320 351 339 4 349 323 307 306 346 341 341 310 316 323 313 287 275 297 311 251 255 271 253 243 226 268 272 292 292 286 279 223 269 297 268 283
339 346 351 357 359 2 355 3 351 338 304 329 303 297 290 334 334 336 333 326 305 313 324 309 288 306 298 294 284 137 180 251 225 256 267 270 267 273 269 259 248 254 284 286
332 340 344 347 354 357 3 355 343 316 297 292 299 314 352 316 338 337 312 305 330 336 318 320 316 313 302 287 259 160 167 259 290 285 285 271 276 279 278 264 250 248 263 274
323 333 335 340 344 349 350 314 329 313 285 303 312 328 326 320 334 316 307 350 349 329 325 310 292 283 278 258 187 143 160 234 272 276 312 307 169 353 351 343 290 307 267 267
315 319 323 329 335 339 334 330 321 301 286 307 305 314 324 324 320 301 336 4 351 317 320 311 297 282 273 204 142 161 163 267 281 287 312 357 105 27 354 335 45 22 346 334
308 310 316 315 328 326 324 330 316 305 287 287 294 335 313 325 315 329 351 341 348 342 321 309 328 317 357 89 97 154 174 236 277 280 307 281 10 354 337 336 304 33 338 326
299 304 305 310 313 316 315 317 268 279 301 261 323 312 327 322 322 320 324 332 348 359 288 334 349 326 336 358 17 121 316 294 229 321 278 316 11 334 320 313 250 4 338 313
293 297 303 301 305 310 303 316 259 270 279 278 304 306 302 299 315 287 304 350 360 11 342 332 8 311 330 352 3 329 321 335 267 288 276 98 3 340 322 355 321 312 300 287
294 292 299 302 305 304 297 299 253 247 268 289 282 309 302 297 291 248 315 346 6 41 3 331 342 326 311 326 308 317 327 329 347 329 300 338 2 346 3 297 301 313 313 11
296 289 293 295 292 297 292 294 242 266 255 266 298 301 296 272 267 259 261 282 300 156 8 285 296 286 276 331 299 18 293 110 280 257 281 337 343 327 321 320 318 339 0 57
295 297 292 288 278 283 282 289 301 292 286 296 273 281 325 299 276 244 222 235 199 205 227 205 254 273 286 287 289 288 336 77 251 292 226 333 320 333 338 341 357 7 36 77
291 291 294 287 280 283 282 286 295 260 281 283 284 300 293 270 251 224 224 242 245 242 234 203 259 238 233 248 259 227 40 314 290 260 299 329 300 333 339 346 15 45 74 86
292 293 292 284 267 277 289 300 294 226 257 288 300 309 340 310 221 212 225 238 231 238 192 212 270 241 223 220 214 191 277 261 265 290 338 292 292 319 349 348 40 71 88 94
304 299 285 267 269 284 307 332 243 222 260 276 300 294 293 314 222 218 224 237 220 222 197 226 242 229 178 253 267 186 329 300 264 264 292 296 307 325 345 41 69 98 104 112
308 303 284 262 267 278 253 245 217 198 229 291 292 277 283 284 223 224 223 228 211 220 221 226 234 201 194 153 263 308 316 317 334 318 309 277 313 337 4 99 97 109 114 121
316 319 291 279 283 284 284 281 259 236 273 242 266 279 278 257 226 229 221 180 196 211 224 236 200 138 194 239 222 291 318 302 359 9 22 281 351 126 123 119 123 117 111 120
308 320 308 297 273 253 252 272 268 212 212 256 227 258 283 305 274 300 181 212 192 189 218 229 182 168 228 205 233 294 311 342 15 37 79 110 101 125 126 124 125 119 116 118
313 322 310 301 282 298 282 272 211 201 212 233 253 255 260 320 280 303 33 208 236 210 223 184 193 99 121 146 338 273 291 4 129 100 92 124 113 127 139 122 115 125 124 122
305 302 262 298 277 259 244 243 200 183 229 219 241 225 231 264 238 284 180 252 299 285 243 215 182 139 117 176 301 170 215 265 132 153 144 139 151 132 148 129 122 118 124 129
287 285 293 282 247 228 244 231 211 201 241 186 222 215 202 250 280 263 347 244 263 251 242 218 193 120 142 155 169 180 27 124 116 122 134 125 148 139 145 134 126 123 121 124
289 273 267 238 229 237 229 225 220 225 213 280 219 170 182 284 234 217 182 234 232 156 227 209 90 136 136 154 157 169 138 133 130 129 136 124 145 132 135 141 137 122 126 125
255 242 247 236 212 228 210 238 281 321 290 300 304 290 230 229 215 203 234 215 241 225 243 169 143 143 142 163 170 165 149 147 138 133 129 127 136 124 134 128 140 127 126 126
238 239 240 234 241 289 302 302 294 320 302 341 280 265 191 290 295 248 263 230 226 148 180 121 133 142 151 163 169 163 152 150 145 141 140 134 130 135 132 127 128 142 133 138
228 233 258 266 274 269 303 324 329 347 327 286 269 265 271 223 235 225 225 203 76 194 108 130 147 153 153 155 165 162 158 152 152 142 139 150 136 136 141 143 130 131 134 132
231 241 240 255 274 275 274 279 295 328 357 357 323 254 246 305 265 238 40 40 48 106 96 135 152 154 156 142 144 157 158 156 152 150 149 144 135 131 134 131 126 125 130 136